Weather History for Lebanon, NH

Change the Weather History Date:

Wednesday, November 20, 2013

  Actual Average Record
Temperature  
Mean Temperature 28 °F -  
Max Temperature 39 °F 42 °F 71 °F (1991)
Min Temperature 18 °F 26 °F 8 °F (1986)
Degree Days  
Heating Degree Days 36    
Moisture  
Dew Point 14 °F    
Average Humidity 59    
Maximum Humidity 81    
Minimum Humidity 30    
Precipitation  
Precipitation 0.00 in - - ()
Sea Level Pressure  
Sea Level Pressure 30.56 in    
Wind  
Wind Speed 5 mph (NNW)    
Max Wind Speed 9 mph    
Max Gust Speed 20 mph    
Visibility 10 miles    
Events      
Averages and records for this station are not official NWS values.
T = Trace of Precipitation, MM = Missing Value Source: NWS Daily Summary

Daily Weather History Graph

Daily Weather History Graph

Search for Another Location

Airport:

Trip Planner

Search our weather history database for the weather conditions in past years. The results will help you decide how hot, cold, wet, or windy it might be!

Date:

Astronomy

Nov. 20, 2013 Rise Set
Actual Time 6:49 AM EST 4:19 PM EST
Civil Twilight 6:18 AM EST 4:50 PM EST
Nautical Twilight 5:43 AM EST 5:25 PM EST
Astronomical Twilight 5:09 AM EST 6:00 PM EST
Moon 6:59 PM EST (11/20) 9:13 AM EST (11/20)
Length of Visible Light 10h 32m
Length of Day
9h 29m
Waning Gibbous, 91% of the Moon is Illuminated
Nov 20
Waning Gibbous
Nov 25
Last Quarter
Dec 2
New
Dec 9
First Quarter
Dec 17
Full

Hourly Weather History & Observations

Time (EST) Temp. Windchill Dew Point Humidity Pressure Visibility Wind Dir Wind Speed Gust Speed Precip Events Conditions
12:53 AM 28.9 °F 20.4 °F 12.9 °F 51% 30.35 in 10.0 mi NW 9.2 mph 19.6 mph N/A   Clear
1:53 AM 28.0 °F 19.3 °F 15.1 °F 58% 30.39 in 10.0 mi NNW 9.2 mph - N/A   Clear
2:53 AM 28.0 °F 19.3 °F 15.1 °F 58% 30.42 in 10.0 mi North 9.2 mph - N/A   Clear
3:53 AM 26.1 °F 21.9 °F 15.1 °F 63% 30.44 in 10.0 mi North 3.5 mph - N/A   Clear
4:53 AM 24.1 °F - 15.1 °F 69% 30.47 in 10.0 mi Calm Calm - N/A   Clear
5:53 AM 21.9 °F - 14.0 °F 72% 30.51 in 10.0 mi Calm Calm - N/A   Clear
6:53 AM 18.0 °F - 12.0 °F 78% 30.54 in 10.0 mi Calm Calm - N/A   Clear
7:53 AM 24.1 °F - 17.1 °F 75% 30.56 in 10.0 mi Calm Calm - N/A   Clear
8:53 AM 28.9 °F 21.9 °F 15.1 °F 56% 30.58 in 10.0 mi WNW 6.9 mph - N/A   Clear
9:53 AM 32.0 °F 24.8 °F 14.0 °F 48% 30.59 in 10.0 mi North 8.1 mph - N/A   Clear
10:53 AM 34.0 °F 28.8 °F 12.9 °F 42% 30.59 in 10.0 mi NNW 5.8 mph - N/A   Clear
11:53 AM 36.0 °F 32.1 °F 12.0 °F 37% 30.58 in 10.0 mi NNE 4.6 mph - N/A   Clear
12:53 PM 37.0 °F 31.6 °F 12.0 °F 36% 30.57 in 10.0 mi NW 6.9 mph - N/A   Clear
1:53 PM 37.9 °F 32.7 °F 10.9 °F 33% 30.57 in 10.0 mi West 6.9 mph - N/A   Clear
2:53 PM 39.0 °F 34.0 °F 10.0 °F 30% 30.57 in 10.0 mi North 6.9 mph - N/A   Clear
3:53 PM 37.0 °F 34.5 °F 10.0 °F 33% 30.58 in 10.0 mi WNW 3.5 mph - N/A   Clear
4:53 PM 27.0 °F 23.0 °F 16.0 °F 63% 30.60 in 10.0 mi South 3.5 mph - N/A   Clear
5:53 PM 25.0 °F - 16.0 °F 69% 30.62 in 10.0 mi Calm Calm - N/A   Clear
6:53 PM 23.0 °F - 15.1 °F 72% 30.64 in 10.0 mi Calm Calm - N/A   Clear
7:53 PM 23.0 °F - 14.0 °F 68% 30.65 in 10.0 mi Calm Calm - N/A   Clear
8:53 PM 21.0 °F - 14.0 °F 74% 30.65 in 10.0 mi Calm Calm - N/A   Clear
9:53 PM 19.9 °F - 12.9 °F 74% 30.66 in 10.0 mi Calm Calm - N/A   Clear
10:53 PM 19.9 °F - 14.0 °F 78% 30.67 in 10.0 mi Calm Calm - N/A   Clear
11:53 PM 18.0 °F - 12.9 °F 81% 30.66 in 10.0 mi Calm Calm - N/A   Clear